Location: Riedlingen
(48.1569°N, 9.4757°E)
Time: 02:43:26
(UTC+02:00)

ISS - Pass Details

Date: 17 May 2021
Orbit: 417 x 422 km, 51.6° (Epoch: 15 June)

Event Time Altitude Azimuth Distance (km) Brightness Sun altitude
Rises 02:03:51 0° 290° (WNW) 2,372 0.2 -21.7°
Reaches altitude 10° 02:05:58 10° 294° (WNW) 1,507 -0.8 -21.7°
Maximum altitude 02:09:20 62° 16° (NNE) 478 -3.3 -21.6°
Drops below altitude 10° 02:12:41 10° 98° (E) 1,506 -0.9 -21.4°
Sets 02:14:48 0° 102° (ESE) 2,370 0.1 -21.3°
